Probability
0 0 0 0 0 0 0 0 0 0 0 0 0 0 0 0 0 0 0 0 0 0 0 0 0 0 0 0 0 0 0 0 0 0 0 0 0 0
0 0 0 0 0 0 0 0 0 0 0 0 0 0 0 0 0 0 0 0 0 0 0 0 0 0 0 0 0 0 0 0 0 0 0 0 0 0
0 0 0 0 0 0 0 0 0 0 0 0 0 0 0 0 0 0 0 0 0 0 0 0 0 0 0 0 0 0 0 0 0 0 0 0 0 0
0 0 0 0 0 0 0 0 0 0 0 0 0 0 0 0 0 0 0 0 0 0 0 0 0 0 0 0 0 0 0 0 0 0 0 0 0 0
0 0 0 0 0 0 0 0 0 0 0 0 0 0 0 0 0 0 0 0 0 0 0 0 0 0 0 0 0 0 0 0 0 0 0 0 0 0
0 0 0 0 0 0 0 0 0 0 0 0 0 0 0 0 0 0 0 0 0 0 0 0 0 0 0 0 0 0 0 0 0 0 0 0 0 0
0 0 0 0 0 0 0 0 0 0 0 0 0 0 0 0 0 0 0 0 0 0 0 0 0 0 0 0 0 0 0 0 0 0 0 0 0 0
0 0 0 0 0 0 0 0 0 0 0 0 0 0 0 0 0 0 0 0 0 0 0 0 0 0 0 0 0 0 0 0 0 0 0 0 0 0
0 0 0 0 0 0 0 0 0 0 0 0 0 0 0 0 0 0 0 0 0 0 0 0 0 0 0 0 0 0 0 0 0 0 0 0 0 0
0 0 0 0 0 0 0 0 0 0 0 0 0 0 0 0 0 0 0 0 0 0 0 0 0 0 0 0 0 0 0 0 0 0 0 0 0 0
0 0 0 0 0 0 0 0 0 0 0 0 0 0 0 0 0 0 0 0 0 0 0 0 0 0 0 0 0 0 0 0 0 0 0 0 0 0
0 0 0 0 0 0 0 0 0 0 0 0 0 0 0 0 0 0 0 0 0 0 0 0 0 0 0 0 0 0 0 0 0 0 0 0 0 0
0 0 0 0 0 0 0 0 0 0 0 0 0 0 0 0 0 0 0 0 0 0 0 0 0 0 0 0 0 0 0 0 0 0 0 0 0 0
0 0 0 0 0 0 0 0 0 0 0 0 0 0 0 0 0 0 0 0 0 0 0 0 0 0 0 0 0 0 0 0 0 0 0 0 0 0
0 0 0 0 0 0 0 0 0 0 0 0 0 0 0 0 0 0 0 0 0 0 0 0 0 0 0 0 0 0 0 0 0 0 0 0 0 0
0 0 0 0 0 0 0 0 0 0 0 0 0 0 0 0 0 0 0 0 0 0 0 0 0 0 0 0 0 0 0 0 0 0 0 0 0 0
0 0 0 0 0 0 0 0 0 0 0 0 0 0 0 0 0 0 0 0 0 0 0 0 0 0 0 0 0 0 0 0 0 0 0 0 0 0
0 0 0 0 0 0 0 0 0 0 0 0 0 0 0 0 0 0 0 0 0 0 0 0 0 0 0 0 0 0 0 0 0 0 0 0 0 0
0 0 0 0 0 0 0 0 0 0 0 0 0 0 0 0 0 0 0 0 0 0 0 0 0 0 0 0 0 0 0 0 0 0 0 0 0 0
0 0 0 0 0 0 0 0 0 0 0 0 0 0 0 0 0 0 0 0 0 0 0 0 0 0 0 0 0 0 0 0 0 0 0 0 0 0
0 0 0 0 0 0 0 0 0 0 0 0 0 0 0 0 0 0 0 0 0 0 0 0 0 0 0 0 0 0 0 0 0 0 0 0 0 0
0 0 0 0 0 0 0 0 0 0 0 0 0 0 0 0 0 0 0 0 0 0 0 0 0 0 0 0 0 0 0 0 0 0 0 0 0 0
0 0 0 0 0 0 0 0 0 0 0 0 0 0 0 0 0 0 0 0 0 0 0 0 0 0 0 0 0 0 0 0 0 0 0 0 0 0
Wind_Speed
11 12 9 8 7 7 7 7 7 6 7 6 5 8 7 6 8 8 8 10 10 9 8 6 5 4 3 3 3 4 5 5 6 8 10 11 13 14
9 12 11 8 8 7 7 7 7 6 5 5 4 6 8 6 8 8 7 9 10 9 8 7 6 5 3 2 2 3 3 5 6 8 10 11 12 14
11 12 12 10 8 7 7 7 7 6 6 4 3 5 8 8 7 6 6 6 6 8 8 8 7 5 4 2 2 2 3 5 7 8 10 11 12 13
12 12 12 9 10 8 7 8 7 7 6 6 5 5 7 8 7 7 5 4 4 7 8 7 7 6 4 3 2 2 3 5 6 7 9 11 12 13
12 13 12 11 11 8 9 8 7 6 6 6 5 5 5 6 7 5 5 4 4 5 7 7 7 6 5 3 2 1 3 4 5 7 8 10 11 13
11 12 12 12 11 11 9 9 7 6 7 6 5 5 5 6 6 6 5 4 4 4 4 4 5 6 5 3 2 1 2 4 5 7 8 9 10 11
9 11 11 12 12 10 8 8 8 6 6 6 6 5 6 7 7 5 5 5 3 3 3 3 3 3 3 3 2 1 2 3 5 7 8 9 10 11
10 9 9 10 10 10 11 10 10 10 9 8 6 8 8 8 7 7 6 5 4 4 3 3 2 2 2 1 1 1 2 3 5 6 8 8 9 10
9 8 7 7 9 8 8 8 8 9 10 9 9 9 9 9 10 9 8 6 4 5 4 3 2 2 2 2 2 1 1 3 4 6 7 8 9 9
8 8 8 8 8 8 8 6 6 5 7 6 7 7 7 8 9 8 8 6 5 3 3 2 2 2 1 1 3 1 1 3 4 5 7 8 9 9
7 7 9 9 10 10 8 7 6 4 4 6 6 7 9 11 10 8 8 6 4 3 2 2 2 1 1 1 2 2 2 3 4 5 6 8 8 8
5 6 9 10 11 10 9 9 9 6 6 6 7 8 8 9 9 6 7 6 5 4 3 3 3 2 1 1 1 1 1 1 3 4 6 7 8 5
5 5 5 10 10 10 8 8 10 8 7 7 6 6 5 5 4 4 3 4 4 4 5 4 3 2 2 1 1 1 1 2 2 2 3 6 7 6
5 5 5 9 8 8 7 10 12 9 6 6 6 5 5 5 5 5 6 5 5 4 6 5 3 3 3 2 1 0 1 1 2 3 3 4 4 5
4 6 7 9 8 6 9 12 10 7 7 7 6 5 5 6 7 6 7 8 8 6 4 3 3 3 2 2 1 1 0 1 2 3 3 3 3 3
5 7 9 9 7 7 8 7 5 5 6 6 6 6 6 6 6 6 6 6 6 4 4 4 3 3 2 2 1 1 0 1 2 3 3 3 3 2
4 4 4 4 4 4 4 4 5 5 6 6 7 7 7 7 6 5 5 5 4 4 4 3 4 4 3 1 1 1 1 1 2 2 3 3 3 3
5 5 5 5 5 5 6 5 5 5 6 7 7 7 8 8 7 6 5 5 6 5 4 3 3 3 3 2 2 0 1 1 2 2 2 3 3 3
4 5 5 5 5 5 5 6 5 5 6 7 7 8 8 8 8 7 6 6 6 5 4 3 2 2 3 2 1 1 1 1 2 2 2 2 3 3
4 5 5 5 5 5 6 6 6 6 6 7 7 8 8 8 8 7 7 7 7 6 5 3 2 1 2 2 1 1 2 1 1 2 2 3 3 3
3 4 5 5 5 5 6 6 6 6 7 7 7 8 8 8 8 7 7 9 7 6 5 3 2 2 2 2 2 2 2 2 2 1 2 2 3 2
3 3 4 5 5 6 7 7 6 6 7 7 8 8 8 8 9 9 8 8 6 6 5 4 3 2 2 2 3 2 2 2 2 2 2 3 2 2
3 3 4 5 5 6 7 7 8 7 7 7 8 8 8 8 8 7 8 7 7 7 7 5 4 3 3 3 3 2 3 2 2 3 3 5 5 4
Wind_Direction
222 221 220 218 211 209 203 203 201 204 207 200 193 190 188 187 173 187 191 185 189 191 189 190 199 206 225 254 278 299 309 317 320 319 319 319 321 322
220 217 217 214 209 206 204 212 214 210 209 192 196 182 177 178 179 189 186 173 180 185 186 188 192 197 210 228 261 293 310 316 318 317 318 319 320 321
218 215 214 210 204 203 202 210 210 207 201 190 188 175 177 177 174 178 177 181 176 182 188 189 189 189 190 207 237 280 306 316 318 318 320 321 322 323
216 211 211 206 205 202 203 207 203 201 194 186 181 176 182 177 171 171 172 176 177 175 187 188 183 182 183 188 209 276 312 318 319 321 322 323 325 323
216 210 207 202 203 201 204 203 195 193 189 178 179 169 165 164 166 165 169 171 170 170 180 183 180 179 178 180 195 273 309 313 317 321 323 325 324 323
217 211 206 202 201 202 202 198 188 185 181 173 172 166 162 161 165 170 174 173 168 171 175 177 173 175 176 179 198 254 297 308 317 320 322 324 325 323
218 213 207 202 204 205 199 191 187 187 180 175 174 168 170 169 177 172 172 158 163 173 171 176 177 180 179 182 197 245 287 309 319 321 323 325 325 325
212 209 202 195 198 199 193 194 195 193 188 183 184 183 188 181 167 166 161 164 174 172 177 173 175 176 176 185 155 237 283 314 321 324 325 328 330 328
207 201 197 193 192 193 181 184 198 198 193 188 188 192 186 180 170 170 174 171 159 153 165 166 164 180 166 156 161 226 292 318 324 326 329 331 331 330
202 198 193 194 195 186 180 184 187 195 193 189 190 187 180 171 171 168 157 129 103 125 160 159 161 177 169 182 151 214 290 323 329 332 335 335 334 330
198 197 192 194 184 173 175 175 168 160 124 129 133 136 143 149 150 140 144 144 141 146 158 151 139 148 196 204 158 195 269 321 333 337 339 337 335 327
189 193 192 189 180 177 178 175 172 167 147 126 118 113 125 137 144 154 159 158 141 147 159 150 139 146 177 185 215 245 256 313 329 334 336 336 337 326
186 191 186 170 174 177 179 181 171 159 147 139 134 130 125 127 125 111 116 147 144 137 151 149 146 155 153 158 205 276 305 324 319 318 319 333 336 332
189 186 173 164 167 170 172 158 149 146 146 142 141 144 141 135 123 108 95 79 72 106 138 141 141 153 143 149 165 224 321 322 325 327 327 326 324 328
179 165 163 159 154 156 153 151 150 153 151 149 151 150 140 133 125 112 100 92 79 74 94 111 129 140 143 147 143 144 333 319 328 328 327 326 328 327
142 133 136 140 145 148 151 152 156 157 154 150 144 137 132 133 133 131 126 120 104 87 68 73 100 123 124 122 139 141 14 323 321 329 329 325 329 331
147 139 145 148 152 154 152 149 145 146 143 142 142 142 141 138 134 132 128 124 122 128 112 85 77 77 69 79 107 99 45 347 333 336 331 329 334 336
156 159 163 164 166 165 158 151 148 150 148 146 146 148 147 143 136 131 129 129 128 126 121 119 116 112 111 72 21 28 359 343 341 336 329 324 326 337
165 169 170 168 166 164 162 159 153 150 149 147 148 147 143 141 140 139 139 133 128 126 123 125 127 122 122 105 84 337 322 337 342 340 336 325 318 325
172 171 170 167 165 165 159 151 146 145 148 146 144 143 143 144 144 144 144 140 136 130 124 120 117 115 110 109 107 25 337 325 329 337 338 335 329 314
169 170 169 167 164 160 154 150 150 150 150 145 143 144 146 145 144 143 139 139 134 132 135 128 100 95 99 107 102 79 30 6 342 325 332 335 344 351
164 166 168 164 159 156 153 151 150 150 149 145 145 145 146 146 144 143 143 142 136 129 122 112 117 116 98 99 98 86 52 25 28 20 349 341 339 339
166 163 159 156 159 156 153 153 152 152 149 145 146 145 144 142 141 141 139 134 130 128 125 122 115 97 88 95 97 90 70 44 39 38 36 17 3 343